Hourly Data Report for October 30, 2014

All times are specified in Local Standard Time (LST). Add 1 hour to adjust for Daylight Saving Time where and when it is observed.

TORONTO INTL A
ONTARIO

43°40'36.000" N
79°37'50.000" W
173.40 m
6158731
71624
YYZ

Download Data

Hourly Data (October 2014)
Hourly Data Report for October 30, 2014
Temp Definition
°C
Dew Point Temp Definition
°C
Rel Hum Definition
%
Wind Dir Definition
10's deg

Wind Spd Definition
km/h
Visibility Definition
km
Stn Press Definition
kPa
Hmdx Definition


Wind Chill Definition


Weather Definition


TIME
00:00 Legend Double Dagger 4.8 2.5 85 27 13 24.1 99.50     LegendNANA
01:00 Legend Double Dagger 5.4 2.8 83 29 12 24.1 99.52     Mostly Cloudy
02:00 Legend Double Dagger 5.1 2.3 82 31 16 24.1 99.55     LegendNANA
03:00 Legend Double Dagger 5.0 2.4 83 29 15 24.1 99.57     LegendNANA
04:00 Legend Double Dagger 4.8 2.5 85 26 11 24.1 99.60     Mostly Cloudy
05:00 Legend Double Dagger 3.1 1.2 87 28 12 24.1 99.65     LegendNANA
06:00 Legend Double Dagger 2.7 0.9 88 28 13 24.1 99.69     LegendNANA
07:00 Legend Double Dagger 3.7 1.4 85 30 10 24.1 99.71     Mostly Cloudy
08:00 Legend Double Dagger 5.2 2.0 80 30 10 24.1 99.75     LegendNANA
09:00 Legend Double Dagger 5.8 2.1 77 32 5 24.1 99.79     LegendNANA
10:00 Legend Double Dagger 6.4 2.7 77 34 8 24.1 99.80     Mostly Cloudy
11:00 Legend Double Dagger 6.9 2.6 74 35 3 24.1 99.80     LegendNANA
12:00 Legend Double Dagger 8.4 1.8 63 34 4 24.1 99.74     LegendNANA
13:00 Legend Double Dagger 9.1 1.1 57 25 15 24.1 99.69     Mostly Cloudy
14:00 Legend Double Dagger 8.6 1.8 62 27 18 24.1 99.67     LegendNANA
15:00 Legend Double Dagger 8.2 0.9 60 27 14 24.1 99.65     LegendNANA
16:00 Legend Double Dagger 7.9 0.6 60 28 16 24.1 99.67     Mostly Cloudy
17:00 Legend Double Dagger 7.5 0.5 61 28 11 24.1 99.66     LegendNANA
18:00 Legend Double Dagger 6.7 1.2 68 26 8 24.1 99.67     LegendNANA
19:00 Legend Double Dagger 6.6 1.1 68 24 10 24.1 99.68     Mostly Cloudy
20:00 Legend Double Dagger 6.2 1.2 70 27 7 24.1 99.64     LegendNANA
21:00 Legend Double Dagger 5.9 1.1 71 24 6 24.1 99.63     LegendNANA
22:00 Legend Double Dagger 6.3 1.6 72 32 10 24.1 99.58     Cloudy
23:00 Legend Double Dagger 6.0 1.7 74 1 5 24.1 99.55     LegendNANA

Notes on Data Quality.

Legend

  • E = Estimated
  • M = Missing
  • NA = Not Available
  • ‡ = Partner data that is not subject to review by the National Climate Archives
Date modified: